Regional Weather Roundup
Issued by NWS

Home | Current Version | Previous Version | Graphics & Text | Print | Product List | Glossary On
Versions: 1 2 3 4 5 6 7 8 9 10 11 12 13 14 15 16 17 18 19 20 21 22 23 24 25 26 27 28 29 30 31 32 33 34 35 36 37 38 39 40 41 42 43 44 45 46 47 48 49 50
000
ASUS43 KMPX 311510
RWRMN
WEATHER ROUNDUP FOR MINNESOTA
NATIONAL WEATHER SERVICE TWIN CITIES/CHANHASSEN MN
1000 AM CDT TUE MAY 31 2016


NOTE: "FAIR" INDICATES FEW OR NO CLOUDS BELOW 12,000 FEET WITH NO
SIGNIFICANT WEATHER AND/OR OBSTRUCTIONS TO VISIBILITY. N/A MEANS
CURRENT SKY AND/OR WEATHER CONDITIONS ARE NOT AVAILABLE.

MNZ060>063-068>070-311600-
   Twin Cities Metro

CITY           SKY/WX    TMP DP  RH WIND       PRES   REMARKS
TWIN CITIES    CLOUDY    66  61  84 S10       29.88R
ST PAUL        CLOUDY    66  63  90 S10       29.89R
CRYSTAL        CLOUDY    66  59  78 S13       29.86R
BLAINE         CLOUDY    66  64  94 S9        29.87S
EDEN PRAIRIE   CLOUDY    66  61  84 S8        29.87R
SOUTH ST PAUL  CLOUDY    65  64  96 SE8       29.88R
LAKE ELMO      LGT RAIN  64  63  94 S10       29.90R
$$
MNZ001>005-007-008-013>017-022>024-027-028-311600-
   Northwest Minnesota

CITY           SKY/WX    TMP DP  RH WIND       PRES   REMARKS
BEMIDJI        CLOUDY    53  52  96 SE13G20   29.80S
HALLOCK        CLOUDY    57  57 100 SE12      29.68F
ROSEAU         CLOUDY    54  48  82 SE15G21   29.77S
WARROAD        RAIN      52  46  82 SE17G24   29.79F
THIEF RVR FALL CLOUDY    57  54  88 SE14      29.74R
CROOKSTON      CLOUDY    61  61 100 S14       29.71S
FOSSTON        LGT RAIN  57  55  94 SE10G16   29.75S
DETROIT LAKES  CLOUDY    61  59  94 SW13      29.77F
MOORHEAD       CLOUDY    64  57  77 SW15      29.75S
PARK RAPIDS    LGT RAIN  57  54  89 SE14G20   29.78F
MAHNOMEN       CLOUDY    60  58  94 S13       29.75R
$$
MNZ006-009>011-018-025>026-311600-
   North Central Minnesota

CITY           SKY/WX    TMP DP  RH WIND       PRES   REMARKS
BAUDETTE       LGT RAIN  50  47  89 E21G29    29.82S
FLAG ISLAND    LGT RAIN  52  48  87 E15G21    29.81F
INTL FALLS     RAIN      48  45  89 E16G28    29.90F FOG
WASKISH        LGT RAIN  50  48  93 E14G21    29.82F
BIG FORK       RAIN      48  46  93 E9        29.87F
LONGVILLE      RAIN      52  50  93 SE7       29.84S
GRAND RAPIDS   RAIN      49  47  93 NE8       29.89R
CRANE LAKE     LGT RAIN  48  46  93 CALM      29.96F
ORR            LGT RAIN  48  45  87 SE3       29.90F
COOK           LGT RAIN  48  45  87 E5        29.92F
WALKER         LGT RAIN  52  51  95 SE10G17   29.82S
$$
MNZ012-019>021-037-311600-
   Northeast Minnesota

CITY           SKY/WX    TMP DP  RH WIND       PRES   REMARKS
DULUTH         CLOUDY    45  41  86 E22G31    29.94F
ELY            CLOUDY    48  39  71 E12G17    29.97F
HIBBING        CLOUDY    49  44  83 E17       29.89F
EVELETH        LGT RAIN  50  43  76 E8G18     29.93F
DULUTH HARBOR  DRIZZLE   43  41  93 NE28G35   29.98F
TWO HARBORS    LGT RAIN  48  43  81 NE17G28   29.98S
SILVER BAY     CLOUDY    45  39  81 N7G29     30.02S
GRAND MARAIS     N/A     46  37  71 E22       30.07R
G MARAIS ARPRT CLOUDY    48  36  61 E14G20    30.06S
$$
MNZ029>031-032-039>041-046>048-054>057-064-311600-
   West Central Minnesota

CITY           SKY/WX    TMP DP  RH WIND       PRES   REMARKS
FERGUS FALLS   PTSUNNY   63  57  82 W16       29.76R
WHEATON        PTSUNNY   64  57  77 W14G20    29.82S
MORRIS         CLOUDY    64  55  72 W15       29.81S
ALEXANDRIA     CLOUDY    62  58  86 SW13      29.82S
ELBOW LAKE     CLOUDY    61  57  86 SW14      29.81R
WADENA         CLOUDY    61  59  94 S13       29.79S
GLENWOOD       CLOUDY    63  59  88 W13       29.82F
APPLETON       CLOUDY    64  55  72 W15       29.83S
BENSON         CLOUDY    64  55  72 W14       29.83S
ORTONVILLE     MOSUNNY   64  54  68 W10       29.83S
MADISON        CLOUDY    64  54  68 W9        29.85S
WILLMAR        FAIR      64  59  82 SW15      29.86S
$$
MNZ033>034-036-042>043-049>051-058-059-311600-
   Central Minnesota

CITY           SKY/WX    TMP DP  RH WIND       PRES   REMARKS
ST CLOUD       CLOUDY    64  62  93 S12       29.83F
SAUK CENTRE    CLOUDY    62  59  90 S10G16    29.82S
PAYNESVILLE    CLOUDY    63  61  94 SW9       29.84S
AITKIN         MIX PCPN  52  46  82 E9G16     29.86S
PINE RIVER     LGT RAIN  52  52 100 SE10      29.87S
BRAINERD       HVY RAIN  52  52 100 E9G17     29.84S FOG
STAPLES        CLOUDY    61  59  94 SE9       29.80F
LONG PRAIRIE   CLOUDY    61  61 100 SE10      29.81F
LITTLE FALLS   LGT RAIN  61  59  94 SE8       29.82S
LITCHFIELD     CLOUDY    64  64 100 SW7       29.85S
BUFFALO        CLOUDY    65  61  87 S9        29.86F
MAPLE LAKE     CLOUDY    66  63  92 S8        29.86F
HUTCHINSON     PTSUNNY   66  64  90 SW8       29.86F
$$
MNZ037-044-045-052-053-311600-
   East Central Minnesota

CITY           SKY/WX    TMP DP  RH WIND       PRES   REMARKS
PRINCETON      DRIZZLE   64  63  94 S10       29.85F
MORA           DRIZZLE   54  50  87 E3        29.89F
CAMBRIDGE      CLOUDY    66  57  72 SE7       29.85F
RUSH CITY      CLOUDY    62  59  88 CALM      29.88S
MOOSE LAKE     CLOUDY    45  43  93 NE9G17    29.90F
HINCKLEY       DRIZZLE   52  50  93 NE5       29.89F
CLOQUET        LGT RAIN  45  43  93 E10G17    29.94R
MCGREGOR       CLOUDY    48  46  93 E14       29.89F
$$
MNZ071>073-080-081-089-090-097-098-311600-
   Southwest Minnesota

CITY           SKY/WX    TMP DP  RH WIND       PRES   REMARKS
MONTEVIDEO     CLOUDY    64  61  88 W9        29.86S
GRANITE FALLS  CLOUDY    65  59  80 SW10      29.88S
CANBY          PTSUNNY   67  56  68 W14G22    29.88S
MARSHALL       CLOUDY    63  56  78 W14       29.88S
REDWOOD FALLS  CLOUDY    64  56  75 W12       29.86S
OLIVIA         CLOUDY    72  64  78 W13       29.85S
PIPESTONE      PTSUNNY   63  54  72 NW12G18   29.91S
WINDOM         PTSUNNY   63  57  82 W13G18    29.88S
WORTHINGTON    CLOUDY    60  55  83 NW12      29.91R
JACKSON        DRIZZLE   63  57  82 W8        29.89S
TRACY          CLOUDY    63  56  80 W7        29.89S
SLAYTON        CLOUDY    61  55  82 W14       29.90S
$$
MNZ065>067-074>077-082>085-091>093-311600-
   South Central Minnesota

CITY           SKY/WX    TMP DP  RH WIND       PRES   REMARKS
MANKATO        CLOUDY    66  61  82 S10       29.88F
NEW ULM        PTSUNNY   66  63  88 SW18G28   29.86F
ST JAMES       LGT RAIN  61  57  88 SW8       29.89R
FAIRMONT       CLOUDY    66  59  77 SW10      29.90R
GLENCOE        PTSUNNY   67  64  91 S9G16     29.85F
FARIBAULT      CLOUDY    64  63  94 S8        29.89S
OWATONNA       CLOUDY    66  61  82 S10G18    29.89S
WASECA         RAIN      63  61  94 SW10      29.90S
ALBERT LEA     CLOUDY    70  63  78 S9G17     29.89F
$$
MNZ078>079-086>088-094>096-311600-
   Southeast Minnesota

CITY           SKY/WX    TMP DP  RH WIND       PRES   REMARKS
ROCHESTER      CLOUDY    70  60  70 S16       29.92F
RED WING       PTSUNNY   66  63  88 SE7       29.88F
STANTON        CLOUDY    65  61  84 S5        29.88S
DODGE CENTER   MOSUNNY   72  59  64 S20       29.90F
WINONA         CLOUDY    73  61  64 CALM      29.92F
AUSTIN         CLOUDY    66  61  82 S13G18    29.91F
PRESTON        MOSUNNY   70  59  68 S10G16    29.94S
$$
ABBREVIATIONS USED IN REMARKS
   TC - TEMPERATURES IN CELSIUS
  WCI - WIND CHILL INDEX
   HX - HEAT INDEX
  VSB - VISIBILITY
$$




USA.gov is the U.S. government's official web portal to all federal, state and local government web resources and services.